一网星座-0356星 (ONEWEB-0356 )

导读

ONEWEB-0356是英国OneWeb公司星座组网卫星之一,于2021年10月14日发射,属于低轨互联网卫星项目。卫星重约147.5kg,运行于高度1200km、倾角87.4°近地轨道,配备Ku/Ka波段天线与离子电推进系统,旨在为全球提供稳定、高速的宽带互联网连接,是OneWeb打造全球卫星互联网星座的重要组成部分,支撑全球偏远地区、海上与航空的网络覆盖。

基本信息
目录编号:
49283
目录名称:
ONEWEB-0356
国际标识:
2021-090E
轨道中心:
EARTH
卫星名称:
一网星座-0356星
卫星全名:
一网星座-0356星 (ONEWEB-0356 )
卫星状态:
在轨 (已飞行1704 天)
发射日期:
2021-10-14 UTC
国别 :
英国 (GB)
星等 :
--
轨道信息
数据来源 国际轨道数据 AOE轨道数据
星历时间 2026-06-14T01:47:44+0800
18小时前
查看轨道信息
2026-06-14T04:00:00+0800
16小时前
查看轨道信息
半长轴 7559.906km 7559.904km
偏心率 0.000218 0.0002231
轨道倾角 87.919° 87.921°
近地点辐角 78.838° 62.901°
升交点赤经 275.121° 275.102°
平近点角 281.300° 13.725°
近地点 1180.12km 1180.08km
远地点 1183.418km 1183.454km
周期 109.027分钟 109.027分钟
每日圈数 13.20773 13.207736
详细信息
平衡模式:
三轴稳定
覆盖范围:
全球
运营商:
一网卫星公司
运营商所在国:
英国
制造商(研发单位):
一网卫星公司
制造商所在国:
英国
使用方式:
暂无
卫星简介
OneWeb卫星网络由648颗重约125公斤的微型卫星组成,运行在1200公里的轨道上。 每颗卫星都能够提供至少每秒8千兆位的吞吐量,以使用其高吞吐量的Ku频段有效载荷为家庭和移动平台提供互联网接入。该卫星仍在工作。
2D轨道图
3D轨道图
轨道高度分析图
轨道倾角分析图
轨道综合分析图
查看轨道综合分析图